カタログに戻る

METEOR 2-8 DEB

運用中PO
NORAD 36867·DEBRIS·🇷🇺 Russia

打ち上げ Mar 25, 1982 から Plesetsk Cosmodrome

Loading…

次のパス (今後24時間)

TLE

最新Source: Space-Track

元期: Sep 14, 2026, 07:24 UTC

1 36867U 82025BE  26257.30864794  .00001896  00000-0  72545-3 0  9990
2 36867  82.5192 109.6947 0034280  49.8279 310.5899 14.29930556283036

AllMySatでMETEOR 2-8 DEBをリアルタイム追跡

Download on the App Store